Location: North Evanston
(42.0634°N, 87.6976°W)
Time: 12:06:27
(UTC+00:00)

Injun/Solrad 3 - Pass Details

Date: 14 May 2026
Orbit: 867 x 989 km, 66.8° (Epoch: 11 June)

Event Time Altitude Azimuth Distance (km) Brightness Sun altitude
Rises 23:53:05 0° 268° (W) 3,549 12.6 11.3°
Reaches altitude 10° 23:56:46 10° 291° (WNW) 2,637 13.4 10.6°
Maximum altitude 00:00:16 15° 326° (NW) 2,292 10.9 10.0°
Drops below altitude 10° 00:03:51 10° 1° (N) 2,691 10.6 9.3°
Sets 00:07:41 0° 24° (NNE) 3,664 10.9 8.7°
